COSMOS 2251 DEB, 35015

Orbit data source: Space-Track

COSMOS 2251 DEB, 35015 is space debris in LEO originally from a launch on Wed, 16 Jun 1993 UTC launched from the Plesetsk Missile And Space Complex (PKMTR). The debris from Iridium 33, an American commercial communications satellite, has been tracked extensively since its accidental collision with the defunct Russian satellite Cosmos 2251 in 2009. This event, occurring at high speed in low Earth orbit (LEO), generated thousands of pieces of space debris, significantly increasing the risk of further collisions. The Iridium 33 debris cloud has impacted space traffic management and orbital debris mitigation strategies, making it a subject of ongoing study in space situational awareness.

Loading next visibility...
Identifier
35015, 1993-036AGC
Orbit
LEO
Country
Flag of CISCIS
Related business
Manufacturer
Unknown
Mission
Spacecraft
Bus & Motor
Unknown
Mass
Unknown
Launch date (UTC)
1993-06-16 (33 years ago)
Launch vehicle
Unknown
Launch site
Plesetsk Missile And Space Complex (PKMTR)
Object type
Payload
Rocket body
Debris
Shape & HBR
Unknown shape, 0.1 m
Radar Cross Section
Small (<0.1 m²)

Expand to show TLE details & history
Last TLE update: 6 days ago

TLE from 6 days ago
0 COSMOS 2251 DEB
1 35015U 93036AGC 25349.95586590  .00002026  00000-0  54698-3 0  9990
2 35015  73.9481 228.6843 0074243  96.6585 285.5342 14.46895598654878
Epoch: 2025-12-15T22:56Z
TLE epoch observation values (Epoch: 2025-12-15T22:56:26.813Z)
Latitude
20.51196°
Longitude
165.87188°
Altitude
724.268 km
Speed
7.502 km/s
True Right ascension
15h 39m 19s
True Declination
20° 23' 56"
Sunlit
Object was in daylight at epoch
Visualization orbit readout
Latitude
Unknown
Longitude
Unknown
Altitude
Unknown
Speed
Unknown
Apparent Right ascension
Unknown
Apparent Declination
Unknown
Sunlit
N/A
Visualization observer readout
Local Sidereal Time
10:56:16
Azimuth
Unknown
Elevation
Unknown
Doppler factor
Unknown
Orbital elements
Apogee altitude
786.224 km
Perigee altitude
680.627 km
Semi-major axis
7,111.562 km
Eccentricity
0.00742
Inclination
73.9481°
RAAN
228.6843°
Arg. of periapsis
96.6585°
True anomaly
284.7125°
Mean anomaly
285.5342°
Eccentric anomaly
285.12355°
Mean motion
3.61906 °/min
Orbital period
99.47 mins
BSTAR
0.00054698
Loading maneuver chart data...
Computing Atmospheric mass density...

Documentation

Showing up to 5 results
|